EWG1UG LEPA-EDDH

Flight info

Callsign EWG1UG
Flight time 2h 23m
Altitude 38000
Route MEROS DCT LAPIT DCT CHELY DCT LUMAS DCT MAXIR DCT LUSOL DCT BODRU DCT OKTET DCT IRMAR DCT KINES DCT VANAS DCT ESOKO DCT GODRA DCT LOKTA DCT TEDGO DCT HAREM DCT LOHRE DCT ELNAT P605 NOLGO NOLGO3S
Aircraft A321/M-SDE3FGHIRWY/LB1

Departure

Time 2026-04-25 16:47
Airport Palma de Mallorca Airport (LEPA)

Arrival

Time 2026-04-25 19:10
Airport Hamburg Helmut Schmidt Airport (EDDH)
Time Latitude Longitude Altitude Speed Heading
2026-04-25 15:58 39.54833 2.73568 39 ft 0 kts 57°
2026-04-25 16:10 39.54833 2.73567 39 ft 0 kts 57°
2026-04-25 16:18 39.54832 2.73567 38 ft 0 kts 57°
2026-04-25 16:32 39.54832 2.73566 38 ft 0 kts 57°
2026-04-25 16:33 39.54831 2.73563 38 ft 3 kts 57°
2026-04-25 16:33 39.54816 2.73534 38 ft 4 kts 57°
2026-04-25 16:34 39.54801 2.73505 37 ft 4 kts 57°
2026-04-25 16:34 39.54787 2.73475 36 ft 4 kts 62°
2026-04-25 16:34 39.54777 2.73444 37 ft 4 kts 84°
2026-04-25 16:34 39.54778 2.73424 38 ft 0 kts 118°
2026-04-25 16:37 39.54777 2.73427 38 ft 1 kts 118°
2026-04-25 16:37 39.54771 2.73457 38 ft 5 kts 90°
2026-04-25 16:37 39.54770 2.73524 37 ft 9 kts 112°
2026-04-25 16:38 39.54729 2.73564 38 ft 7 kts 149°
2026-04-25 16:38 39.54673 2.73607 38 ft 11 kts 147°
2026-04-25 16:38 39.54675 2.73703 38 ft 14 kts 59°
2026-04-25 16:38 39.54718 2.73795 37 ft 13 kts 58°
2026-04-25 16:39 39.54770 2.73907 38 ft 16 kts 57°
2026-04-25 16:39 39.54823 2.73993 38 ft 12 kts 25°
2026-04-25 16:39 39.54908 2.73957 38 ft 14 kts 341°
2026-04-25 16:39 39.54948 2.73999 38 ft 6 kts 56°
2026-04-25 16:40 39.54987 2.73997 38 ft 7 kts 334°
2026-04-25 16:40 39.55039 2.73956 38 ft 10 kts 328°
2026-04-25 16:40 39.55108 2.73902 38 ft 13 kts 330°
2026-04-25 16:40 39.55195 2.73835 38 ft 16 kts 328°
2026-04-25 16:41 39.55298 2.73754 38 ft 19 kts 328°
2026-04-25 16:41 39.55334 2.73725 37 ft 13 kts 328°
2026-04-25 16:41 39.55556 2.73548 38 ft 19 kts 329°
2026-04-25 16:42 39.55656 2.73519 38 ft 15 kts 32°
2026-04-25 16:42 39.55720 2.73640 38 ft 18 kts 59°
2026-04-25 16:42 39.55789 2.73785 38 ft 20 kts 58°
2026-04-25 16:42 39.55867 2.73948 37 ft 22 kts 58°
2026-04-25 16:43 39.55950 2.74124 38 ft 20 kts 58°
2026-04-25 16:43 39.56027 2.74290 38 ft 23 kts 58°
2026-04-25 16:43 39.56093 2.74421 38 ft 16 kts 48°
2026-04-25 16:43 39.56134 2.74452 38 ft 3 kts 17°
2026-04-25 16:44 39.56135 2.74453 38 ft 0 kts 17°
2026-04-25 16:44 39.56140 2.74453 38 ft 2 kts
2026-04-25 16:45 39.56179 2.74437 36 ft 10 kts 332°
2026-04-25 16:45 39.56252 2.74363 38 ft 15 kts 304°
2026-04-25 16:45 39.56220 2.74250 38 ft 15 kts 236°
2026-04-25 16:45 39.56198 2.74206 38 ft 1 kts 238°
2026-04-25 16:46 39.56188 2.74184 38 ft 5 kts 238°
2026-04-25 16:46 39.56159 2.74124 38 ft 22 kts 238°
2026-04-25 16:46 39.55908 2.73597 39 ft 112 kts 238°
2026-04-25 16:46 39.55574 2.72895 121 ft 151 kts 238°
2026-04-25 16:47 39.54789 2.71253 1079 ft 167 kts 238°
2026-04-25 16:47 39.54152 2.69892 1780 ft 183 kts 237°
2026-04-25 16:47 39.53476 2.68433 2265 ft 200 kts 238°
2026-04-25 16:48 39.51908 2.65051 3275 ft 231 kts 238°
2026-04-25 16:48 39.51060 2.63241 3844 ft 244 kts 237°
2026-04-25 16:48 39.50155 2.61397 4694 ft 242 kts 233°
2026-04-25 16:48 39.48924 2.59818 5296 ft 258 kts 211°
2026-04-25 16:49 39.47214 2.58979 5927 ft 270 kts 185°
2026-04-25 16:49 39.45342 2.59206 6723 ft 275 kts 158°
2026-04-25 16:49 39.43662 2.60406 7581 ft 278 kts 146°
2026-04-25 16:49 39.42023 2.61757 8480 ft 282 kts 146°
2026-04-25 16:50 39.40352 2.63168 9208 ft 292 kts 146°
2026-04-25 16:50 39.38634 2.64586 10169 ft 293 kts 144°
2026-04-25 16:50 39.37087 2.66363 10680 ft 307 kts 126°
2026-04-25 16:50 39.36127 2.68886 11076 ft 323 kts 103°
2026-04-25 16:51 39.36088 2.71845 11406 ft 340 kts 76°
2026-04-25 16:51 39.36934 2.74754 11892 ft 351 kts 66°
2026-04-25 16:51 39.37937 2.77672 12530 ft 359 kts 65°
2026-04-25 16:51 39.38632 2.79625 12998 ft 363 kts 65°
2026-04-25 16:52 39.40061 2.83613 13996 ft 367 kts 65°
2026-04-25 16:52 39.41129 2.86633 14636 ft 371 kts 65°
2026-04-25 16:52 39.42192 2.89693 15307 ft 375 kts 65°
2026-04-25 16:52 39.43260 2.92791 15944 ft 380 kts 65°
2026-04-25 16:53 39.45414 2.99104 17243 ft 388 kts 65°
2026-04-25 16:53 39.46505 3.02315 17838 ft 391 kts 65°
2026-04-25 16:53 39.47605 3.05552 18453 ft 395 kts 65°
2026-04-25 16:54 39.48720 3.08834 18907 ft 401 kts 65°
2026-04-25 16:54 39.49849 3.12153 19416 ft 404 kts 65°
2026-04-25 16:54 39.50990 3.15503 19924 ft 408 kts 65°
2026-04-25 16:54 39.52137 3.18874 20458 ft 411 kts 65°
2026-04-25 16:55 39.53292 3.22270 20980 ft 414 kts 65°
2026-04-25 16:55 39.54453 3.25690 21527 ft 416 kts 65°
2026-04-25 16:55 39.55620 3.29135 22072 ft 419 kts 65°
2026-04-25 16:55 39.56792 3.32612 22599 ft 422 kts 65°
2026-04-25 16:56 39.57968 3.36106 23112 ft 425 kts 65°
2026-04-25 16:56 39.59150 3.39631 23612 ft 428 kts 65°
2026-04-25 16:56 39.60400 3.43143 24028 ft 430 kts 59°
2026-04-25 16:56 39.62207 3.46229 24420 ft 431 kts 44°
2026-04-25 16:57 39.64515 3.48725 24824 ft 433 kts 38°
2026-04-25 16:57 39.66088 3.50328 25099 ft 435 kts 37°
2026-04-25 16:57 39.69296 3.53569 25656 ft 439 kts 37°
2026-04-25 16:57 39.71712 3.56003 26059 ft 441 kts 37°
2026-04-25 16:58 39.74144 3.58460 26461 ft 444 kts 37°
2026-04-25 16:58 39.76589 3.60942 26858 ft 447 kts 37°
2026-04-25 16:58 39.79044 3.63441 27255 ft 449 kts 38°
2026-04-25 16:58 39.81512 3.65955 27631 ft 452 kts 37°
2026-04-25 16:59 39.84000 3.68485 27977 ft 455 kts 37°
2026-04-25 16:59 39.86494 3.71025 28319 ft 457 kts 38°
2026-04-25 16:59 39.89010 3.73595 28631 ft 460 kts 38°
2026-04-25 16:59 39.91529 3.76173 28938 ft 462 kts 38°
2026-04-25 17:00 39.94059 3.78767 29215 ft 464 kts 38°
2026-04-25 17:00 39.96593 3.81369 29591 ft 464 kts 38°
2026-04-25 17:00 39.99124 3.83965 30044 ft 462 kts 37°
2026-04-25 17:00 40.01643 3.86551 30429 ft 460 kts 37°
2026-04-25 17:01 40.04160 3.89133 30785 ft 459 kts 37°
2026-04-25 17:01 40.06671 3.91707 31135 ft 459 kts 38°
2026-04-25 17:01 40.09181 3.94283 31486 ft 458 kts 38°
2026-04-25 17:01 40.11685 3.96861 31836 ft 458 kts 38°
2026-04-25 17:02 40.14182 3.99435 32192 ft 457 kts 38°
2026-04-25 17:02 40.16682 4.02013 32550 ft 457 kts 38°
2026-04-25 17:02 40.19172 4.04586 32911 ft 456 kts 38°
2026-04-25 17:02 40.21623 4.07122 33269 ft 455 kts 38°
2026-04-25 17:03 40.24138 4.09725 33646 ft 454 kts 38°
2026-04-25 17:03 40.26615 4.12286 34001 ft 454 kts 38°
2026-04-25 17:03 40.29092 4.14845 34328 ft 453 kts 38°
2026-04-25 17:03 40.31563 4.17406 34624 ft 453 kts 38°
2026-04-25 17:04 40.34032 4.19976 34912 ft 453 kts 38°
2026-04-25 17:04 40.36495 4.22544 35227 ft 452 kts 38°
2026-04-25 17:04 40.38955 4.25110 35539 ft 452 kts 38°
2026-04-25 17:04 40.41383 4.27646 35834 ft 452 kts 38°
2026-04-25 17:05 40.43844 4.30215 36118 ft 452 kts 38°
2026-04-25 17:05 40.48941 4.35046 36675 ft 452 kts 27°
2026-04-25 17:05 40.51799 4.36731 36956 ft 451 kts 18°
2026-04-25 17:06 40.54821 4.37811 37223 ft 450 kts
2026-04-25 17:06 40.57908 4.38539 37479 ft 450 kts
2026-04-25 17:06 40.60993 4.39270 37743 ft 450 kts
2026-04-25 17:06 40.64075 4.40007 37999 ft 451 kts
2026-04-25 17:07 40.67163 4.40747 38118 ft 451 kts
2026-04-25 17:07 40.70253 4.41486 38129 ft 451 kts
2026-04-25 17:07 40.76427 4.42961 38128 ft 451 kts
2026-04-25 17:08 40.82603 4.44448 38130 ft 451 kts
2026-04-25 17:08 40.88779 4.45942 38132 ft 451 kts
2026-04-25 17:09 40.94954 4.47444 38133 ft 451 kts
2026-04-25 17:09 41.01131 4.48942 38137 ft 452 kts
2026-04-25 17:10 41.07319 4.50439 38145 ft 452 kts
2026-04-25 17:10 41.13517 4.51946 38148 ft 453 kts
2026-04-25 17:11 41.19713 4.53473 38150 ft 453 kts
2026-04-25 17:11 41.25915 4.54990 38149 ft 453 kts
2026-04-25 17:12 41.32116 4.56505 38145 ft 453 kts
2026-04-25 17:12 41.38326 4.58022 38148 ft 453 kts
2026-04-25 17:13 41.42427 4.59030 38152 ft 452 kts
2026-04-25 17:13 41.50701 4.61072 38150 ft 452 kts
2026-04-25 17:14 41.56883 4.62594 38145 ft 451 kts
2026-04-25 17:14 41.63059 4.64112 38141 ft 451 kts
2026-04-25 17:15 41.69232 4.65635 38140 ft 451 kts
2026-04-25 17:15 41.75199 4.68228 38138 ft 454 kts 26°
2026-04-25 17:16 41.80643 4.72540 38136 ft 455 kts 30°
2026-04-25 17:16 41.86037 4.76874 38132 ft 455 kts 30°
2026-04-25 17:17 41.91474 4.81229 38133 ft 455 kts 29°
2026-04-25 17:17 41.96911 4.85608 38131 ft 456 kts 30°
2026-04-25 17:18 42.02338 4.90008 38127 ft 456 kts 30°
2026-04-25 17:18 42.07770 4.94416 38127 ft 456 kts 30°
2026-04-25 17:19 42.12319 4.98112 38127 ft 456 kts 29°
2026-04-25 17:19 42.17752 5.02521 38127 ft 456 kts 29°
2026-04-25 17:20 42.23179 5.06939 38123 ft 455 kts 30°
2026-04-25 17:20 42.28598 5.11373 38118 ft 455 kts 30°
2026-04-25 17:21 42.34015 5.15810 38114 ft 455 kts 30°
2026-04-25 17:21 42.39394 5.20225 38110 ft 455 kts 30°
2026-04-25 17:22 42.43932 5.23947 38109 ft 455 kts 30°
2026-04-25 17:22 42.50260 5.29151 38110 ft 455 kts 30°
2026-04-25 17:23 42.55640 5.33593 38111 ft 456 kts 30°
2026-04-25 17:23 42.61053 5.38074 38104 ft 456 kts 30°
2026-04-25 17:24 42.66465 5.42556 38105 ft 456 kts 30°
2026-04-25 17:24 42.71874 5.47051 38107 ft 456 kts 30°
2026-04-25 17:25 42.77319 5.51591 38111 ft 456 kts 30°
2026-04-25 17:25 42.82725 5.56096 38108 ft 456 kts 30°
2026-04-25 17:26 42.88141 5.60602 38106 ft 456 kts 30°
2026-04-25 17:26 42.93552 5.65125 38113 ft 456 kts 30°
2026-04-25 17:27 42.98947 5.69666 38112 ft 456 kts 30°
2026-04-25 17:27 43.03433 5.73444 38103 ft 455 kts 30°
2026-04-25 17:28 43.09743 5.78757 38092 ft 456 kts 30°
2026-04-25 17:28 43.15138 5.83320 38095 ft 456 kts 30°
2026-04-25 17:29 43.20542 5.87887 38087 ft 456 kts 30°
2026-04-25 17:29 43.25905 5.92429 38079 ft 456 kts 30°
2026-04-25 17:30 43.31301 5.97016 38078 ft 456 kts 30°
2026-04-25 17:30 43.36720 6.01534 38066 ft 455 kts 25°
2026-04-25 17:31 43.42666 6.04240 38063 ft 449 kts
2026-04-25 17:31 43.48867 6.04977 38068 ft 447 kts
2026-04-25 17:32 43.55070 6.05599 38064 ft 447 kts
2026-04-25 17:32 43.61284 6.06237 38063 ft 447 kts
2026-04-25 17:33 43.67488 6.06876 38061 ft 447 kts
2026-04-25 17:33 43.73696 6.07515 38062 ft 447 kts
2026-04-25 17:34 43.79741 6.09627 38067 ft 452 kts 22°
2026-04-25 17:34 43.85412 6.13464 38064 ft 454 kts 24°
2026-04-25 17:35 43.91078 6.17334 38066 ft 453 kts 24°
2026-04-25 17:35 43.96744 6.21200 38066 ft 453 kts 24°
2026-04-25 17:36 44.02368 6.25051 38071 ft 453 kts 24°
2026-04-25 17:36 44.08017 6.28927 38072 ft 453 kts 24°
2026-04-25 17:37 44.13673 6.32812 38068 ft 453 kts 24°
2026-04-25 17:37 44.19322 6.36691 38064 ft 452 kts 24°
2026-04-25 17:38 44.24012 6.39936 38069 ft 452 kts 24°
2026-04-25 17:38 44.30595 6.44525 38072 ft 453 kts 24°
2026-04-25 17:39 44.36236 6.48445 38066 ft 453 kts 24°
2026-04-25 17:39 44.41883 6.52365 38067 ft 453 kts 24°
2026-04-25 17:40 44.47532 6.56294 38087 ft 453 kts 24°
2026-04-25 17:40 44.53170 6.60221 38086 ft 453 kts 24°
2026-04-25 17:41 44.58816 6.64154 38091 ft 452 kts 24°
2026-04-25 17:41 44.64453 6.68085 38089 ft 452 kts 24°
2026-04-25 17:42 44.70090 6.72043 38097 ft 453 kts 24°
2026-04-25 17:42 44.75718 6.76013 38097 ft 452 kts 23°
2026-04-25 17:43 44.81683 6.78530 38105 ft 447 kts
2026-04-25 17:43 44.87858 6.78555 38107 ft 443 kts 355°
2026-04-25 17:44 44.94015 6.78139 38102 ft 443 kts 355°
2026-04-25 17:44 45.00170 6.77738 38123 ft 443 kts 355°
2026-04-25 17:45 45.04255 6.77456 38120 ft 443 kts 355°
2026-04-25 17:45 45.12452 6.76898 38124 ft 443 kts 355°
2026-04-25 17:46 45.18624 6.76489 38140 ft 444 kts 355°
2026-04-25 17:46 45.24793 6.76081 38134 ft 443 kts 355°
2026-04-25 17:47 45.30954 6.75669 38137 ft 443 kts 355°
2026-04-25 17:47 45.37111 6.75262 38143 ft 443 kts 355°
2026-04-25 17:48 45.46345 6.76084 38152 ft 449 kts 14°
2026-04-25 17:49 45.52031 6.79884 38159 ft 454 kts 27°
2026-04-25 17:49 45.57487 6.84428 38170 ft 454 kts 27°
2026-04-25 17:50 45.62947 6.88973 38155 ft 454 kts 27°
2026-04-25 17:50 45.68409 6.93513 38153 ft 454 kts 27°
2026-04-25 17:51 45.73865 6.98068 38125 ft 454 kts 27°
2026-04-25 17:51 45.79316 7.02622 38114 ft 453 kts 27°
2026-04-25 17:52 45.84762 7.07183 38106 ft 453 kts 27°
2026-04-25 17:52 45.90202 7.11762 38114 ft 454 kts 27°
2026-04-25 17:53 45.95649 7.16367 38117 ft 454 kts 27°
2026-04-25 17:53 46.01057 7.20943 38113 ft 454 kts 27°
2026-04-25 17:54 46.06505 7.25569 38095 ft 454 kts 27°
2026-04-25 17:54 46.11949 7.30191 38079 ft 454 kts 27°
2026-04-25 17:55 46.17396 7.34828 38090 ft 455 kts 27°
2026-04-25 17:55 46.22843 7.39481 38086 ft 455 kts 27°
2026-04-25 17:56 46.28285 7.44139 38087 ft 455 kts 27°
2026-04-25 17:56 46.33729 7.48807 38106 ft 454 kts 27°
2026-04-25 17:57 46.39159 7.53478 38141 ft 454 kts 27°
2026-04-25 17:57 46.44593 7.58152 38133 ft 454 kts 27°
2026-04-25 17:58 46.49137 7.62075 38126 ft 454 kts 27°
2026-04-25 17:58 46.54558 7.66775 38128 ft 454 kts 28°
2026-04-25 17:59 46.59970 7.71481 38119 ft 453 kts 28°
2026-04-25 17:59 46.65338 7.76292 38116 ft 453 kts 29°
2026-04-25 18:00 46.70685 7.81184 38121 ft 453 kts 29°
2026-04-25 18:00 46.76028 7.86061 38115 ft 453 kts 28°
2026-04-25 18:01 46.81379 7.90933 38118 ft 454 kts 28°
2026-04-25 18:01 46.86732 7.95824 38114 ft 453 kts 29°
2026-04-25 18:02 46.92072 8.00727 38123 ft 453 kts 29°
2026-04-25 18:02 46.97405 8.05625 38115 ft 452 kts 29°
2026-04-25 18:03 47.02739 8.10524 38124 ft 452 kts 28°
2026-04-25 18:03 47.08068 8.15426 38122 ft 451 kts 29°
2026-04-25 18:04 47.13339 8.20302 38128 ft 451 kts 29°
2026-04-25 18:04 47.18637 8.25226 38112 ft 450 kts 29°
2026-04-25 18:05 47.23073 8.29350 38119 ft 450 kts 29°
2026-04-25 18:05 47.29229 8.35087 38127 ft 450 kts 29°
2026-04-25 18:06 47.34527 8.40025 38127 ft 450 kts 29°
2026-04-25 18:06 47.39825 8.44976 38139 ft 450 kts 29°
2026-04-25 18:07 47.45107 8.49942 38136 ft 450 kts 29°
2026-04-25 18:07 47.50402 8.54920 38149 ft 450 kts 29°
2026-04-25 18:08 47.55694 8.59897 38145 ft 450 kts 29°
2026-04-25 18:08 47.60974 8.64889 38136 ft 450 kts 29°
2026-04-25 18:09 47.66250 8.69895 38130 ft 450 kts 29°
2026-04-25 18:09 47.71526 8.74910 38137 ft 450 kts 29°
2026-04-25 18:10 47.76805 8.79922 38131 ft 450 kts 29°
2026-04-25 18:10 47.82078 8.84946 38128 ft 450 kts 29°
2026-04-25 18:11 47.87347 8.89985 38121 ft 450 kts 29°
2026-04-25 18:11 47.92600 8.95023 38119 ft 448 kts 30°
2026-04-25 18:12 47.97850 9.00067 38117 ft 449 kts 30°
2026-04-25 18:12 48.03095 9.05127 38120 ft 449 kts 30°
2026-04-25 18:13 48.08347 9.10203 38134 ft 450 kts 30°
2026-04-25 18:13 48.13616 9.15257 38133 ft 449 kts 26°
2026-04-25 18:14 48.19358 9.18585 38129 ft 440 kts
2026-04-25 18:14 48.22373 9.19226 38128 ft 437 kts
2026-04-25 18:14 48.28428 9.20209 38149 ft 438 kts
2026-04-25 18:15 48.34492 9.21247 38141 ft 438 kts
2026-04-25 18:15 48.40541 9.22286 38137 ft 437 kts
2026-04-25 18:16 48.46590 9.23315 38132 ft 437 kts
2026-04-25 18:17 48.55657 9.24848 38138 ft 437 kts
2026-04-25 18:17 48.61701 9.25882 38137 ft 437 kts
2026-04-25 18:18 48.67740 9.26856 38137 ft 436 kts
2026-04-25 18:18 48.73785 9.27775 38143 ft 436 kts
2026-04-25 18:19 48.79837 9.28670 38139 ft 436 kts
2026-04-25 18:19 48.85869 9.29586 38135 ft 436 kts
2026-04-25 18:20 48.91905 9.30519 38134 ft 436 kts
2026-04-25 18:20 48.97949 9.31442 38142 ft 436 kts
2026-04-25 18:21 49.03984 9.32386 38132 ft 436 kts
2026-04-25 18:21 49.10014 9.33473 38128 ft 436 kts
2026-04-25 18:22 49.16040 9.34619 38146 ft 436 kts
2026-04-25 18:22 49.22055 9.35745 38137 ft 436 kts
2026-04-25 18:23 49.28081 9.36852 38133 ft 436 kts
2026-04-25 18:23 49.34070 9.37959 38121 ft 436 kts
2026-04-25 18:24 49.40130 9.39089 38123 ft 436 kts
2026-04-25 18:24 49.46146 9.40208 38132 ft 435 kts
2026-04-25 18:25 49.52161 9.41331 38137 ft 436 kts
2026-04-25 18:25 49.58137 9.42439 38130 ft 435 kts
2026-04-25 18:26 49.64156 9.43559 38131 ft 435 kts
2026-04-25 18:26 49.70167 9.44698 38136 ft 436 kts
2026-04-25 18:27 49.76190 9.45836 38131 ft 435 kts
2026-04-25 18:27 49.82197 9.46969 38148 ft 435 kts
2026-04-25 18:28 49.88211 9.48099 38137 ft 435 kts
2026-04-25 18:28 49.94218 9.49246 38130 ft 435 kts
2026-04-25 18:29 50.03223 9.50966 38151 ft 435 kts
2026-04-25 18:30 50.15214 9.53265 38137 ft 434 kts
2026-04-25 18:30 50.21209 9.54401 38137 ft 434 kts
2026-04-25 18:31 50.27197 9.55551 38151 ft 434 kts
2026-04-25 18:31 50.33186 9.56720 38147 ft 433 kts
2026-04-25 18:32 50.39172 9.57878 38145 ft 433 kts
2026-04-25 18:32 50.45151 9.59025 38141 ft 432 kts
2026-04-25 18:33 50.51121 9.60184 38162 ft 432 kts
2026-04-25 18:33 50.57081 9.61344 38153 ft 431 kts
2026-04-25 18:34 50.63032 9.62504 38153 ft 431 kts
2026-04-25 18:34 50.68971 9.63675 38154 ft 430 kts
2026-04-25 18:35 50.74915 9.64849 38152 ft 430 kts
2026-04-25 18:35 50.80846 9.66023 38154 ft 430 kts
2026-04-25 18:36 50.86778 9.67190 38153 ft 429 kts
2026-04-25 18:36 50.91749 9.68167 38152 ft 430 kts
2026-04-25 18:37 50.97635 9.69329 38155 ft 428 kts
2026-04-25 18:37 51.03534 9.70500 38149 ft 427 kts
2026-04-25 18:38 51.09430 9.71678 38151 ft 427 kts
2026-04-25 18:38 51.15333 9.72866 38149 ft 427 kts
2026-04-25 18:39 51.21231 9.74061 38157 ft 426 kts
2026-04-25 18:39 51.27113 9.75240 38149 ft 426 kts
2026-04-25 18:40 51.32998 9.76411 38138 ft 426 kts
2026-04-25 18:40 51.38886 9.77595 38136 ft 426 kts
2026-04-25 18:41 51.44761 9.78788 38154 ft 426 kts
2026-04-25 18:41 51.50633 9.79977 38138 ft 425 kts
2026-04-25 18:42 51.55505 9.80971 38136 ft 425 kts
2026-04-25 18:42 51.62363 9.82380 38131 ft 424 kts
2026-04-25 18:43 51.68206 9.83576 38116 ft 421 kts
2026-04-25 18:43 51.74024 9.84764 38119 ft 421 kts
2026-04-25 18:44 51.79787 9.85945 37753 ft 419 kts
2026-04-25 18:44 51.82714 9.86550 36970 ft 419 kts
2026-04-25 18:44 51.85571 9.87137 36176 ft 420 kts
2026-04-25 18:45 51.88467 9.87801 35452 ft 422 kts
2026-04-25 18:45 51.91340 9.88743 35178 ft 422 kts
2026-04-25 18:45 51.94225 9.89759 35072 ft 425 kts
2026-04-25 18:45 51.97108 9.90819 34895 ft 424 kts
2026-04-25 18:46 51.99990 9.91901 34090 ft 425 kts
2026-04-25 18:46 52.02885 9.92985 33085 ft 427 kts
2026-04-25 18:46 52.05791 9.94059 32036 ft 430 kts
2026-04-25 18:46 52.08721 9.95132 30976 ft 433 kts
2026-04-25 18:47 52.11678 9.96211 29872 ft 437 kts
2026-04-25 18:47 52.14650 9.97294 28628 ft 438 kts
2026-04-25 18:47 52.17625 9.98379 27369 ft 440 kts
2026-04-25 18:47 52.20617 9.99472 26067 ft 442 kts
2026-04-25 18:48 52.23623 10.00570 24933 ft 441 kts
2026-04-25 18:48 52.26551 10.01644 24080 ft 434 kts
2026-04-25 18:48 52.29474 10.02723 23142 ft 428 kts
2026-04-25 18:48 52.32356 10.03792 22166 ft 422 kts
2026-04-25 18:49 52.35198 10.04847 21242 ft 415 kts
2026-04-25 18:49 52.37982 10.05878 20563 ft 405 kts
2026-04-25 18:49 52.40746 10.06898 20019 ft 407 kts
2026-04-25 18:49 52.43504 10.07918 19486 ft 405 kts
2026-04-25 18:50 52.46243 10.08937 18965 ft 402 kts
2026-04-25 18:50 52.48964 10.09949 18452 ft 399 kts
2026-04-25 18:50 52.51667 10.10954 17867 ft 396 kts
2026-04-25 18:50 52.54349 10.11950 17287 ft 393 kts
2026-04-25 18:51 52.57008 10.12938 16712 ft 390 kts
2026-04-25 18:51 52.58759 10.13591 16373 ft 388 kts
2026-04-25 18:51 52.62250 10.14900 15632 ft 382 kts
2026-04-25 18:51 52.64836 10.15869 15090 ft 379 kts
2026-04-25 18:52 52.67396 10.16826 14565 ft 377 kts
2026-04-25 18:52 52.69949 10.17784 14031 ft 374 kts
2026-04-25 18:52 52.72477 10.18735 13465 ft 371 kts
2026-04-25 18:52 52.74978 10.19678 12759 ft 365 kts
2026-04-25 18:53 52.77433 10.20607 11855 ft 359 kts
2026-04-25 18:53 52.79857 10.21521 11320 ft 357 kts
2026-04-25 18:53 52.82285 10.22431 11164 ft 358 kts
2026-04-25 18:53 52.84682 10.23328 11096 ft 357 kts
2026-04-25 18:54 52.89533 10.25150 11112 ft 357 kts
2026-04-25 18:54 52.91956 10.26066 11114 ft 357 kts
2026-04-25 18:54 52.94375 10.26981 11113 ft 357 kts
2026-04-25 18:55 52.96747 10.27888 11109 ft 338 kts
2026-04-25 18:55 52.98988 10.28761 11108 ft 326 kts
2026-04-25 18:55 53.01188 10.29605 11106 ft 324 kts
2026-04-25 18:55 53.03382 10.30439 11109 ft 323 kts
2026-04-25 18:56 53.05570 10.31259 11089 ft 321 kts
2026-04-25 18:56 53.07734 10.31324 11068 ft 305 kts 344°
2026-04-25 18:56 53.09644 10.30070 10503 ft 290 kts 323°
2026-04-25 18:56 53.10960 10.27683 10275 ft 271 kts 306°
2026-04-25 18:57 53.11972 10.25168 10146 ft 253 kts 304°
2026-04-25 18:57 53.12908 10.22789 9977 ft 239 kts 304°
2026-04-25 18:57 53.13805 10.20490 9558 ft 235 kts 304°
2026-04-25 18:57 53.14381 10.19002 9443 ft 227 kts 304°
2026-04-25 18:58 53.15483 10.16145 9263 ft 211 kts 304°
2026-04-25 18:58 53.17252 10.12580 8727 ft 202 kts 332°
2026-04-25 18:58 53.18674 10.12294 8351 ft 217 kts
2026-04-25 18:59 53.21231 10.15744 7320 ft 258 kts 43°
2026-04-25 18:59 53.23326 10.20528 6326 ft 251 kts 44°
2026-04-25 19:00 53.25278 10.25085 5293 ft 231 kts 43°
2026-04-25 19:00 53.26387 10.26697 4924 ft 195 kts 13°
2026-04-25 19:01 53.28899 10.27864 4231 ft 183 kts
2026-04-25 19:01 53.30118 10.27698 4063 ft 174 kts 336°
2026-04-25 19:01 53.31211 10.26824 4019 ft 174 kts 331°
2026-04-25 19:01 53.32292 10.25922 4018 ft 174 kts 331°
2026-04-25 19:02 53.34442 10.24100 4031 ft 173 kts 331°
2026-04-25 19:02 53.35516 10.23188 4021 ft 173 kts 331°
2026-04-25 19:02 53.36585 10.22279 4021 ft 173 kts 331°
2026-04-25 19:03 53.38020 10.21057 4021 ft 173 kts 331°
2026-04-25 19:03 53.39752 10.19583 3302 ft 168 kts 330°
2026-04-25 19:03 53.40797 10.18690 3012 ft 170 kts 330°
2026-04-25 19:04 53.42943 10.16855 2986 ft 174 kts 330°
2026-04-25 19:04 53.44010 10.15946 2994 ft 166 kts 330°
2026-04-25 19:05 53.46099 10.14159 2996 ft 173 kts 330°
2026-04-25 19:05 53.48207 10.12354 2993 ft 157 kts 330°
2026-04-25 19:05 53.49148 10.11555 3007 ft 148 kts 330°
2026-04-25 19:06 53.50051 10.10785 2957 ft 143 kts 330°
2026-04-25 19:06 53.51832 10.09251 2710 ft 143 kts 329°
2026-04-25 19:06 53.52715 10.08489 2500 ft 143 kts 329°
2026-04-25 19:07 53.54496 10.06956 2073 ft 139 kts 329°
2026-04-25 19:07 53.55303 10.06266 1880 ft 124 kts 329°
2026-04-25 19:08 53.56785 10.04985 1507 ft 118 kts 329°
2026-04-25 19:08 53.57506 10.04349 1318 ft 116 kts 329°
2026-04-25 19:09 53.59669 10.02535 813 ft 115 kts 327°
2026-04-25 19:09 53.59898 10.02333 752 ft 114 kts 327°
2026-04-25 19:09 53.61811 10.00665 320 ft 116 kts 329°
2026-04-25 19:10 53.62516 10.00049 158 ft 116 kts 329°
2026-04-25 19:10 53.63227 9.99437 47 ft 107 kts 329°
2026-04-25 19:10 53.63793 9.98937 49 ft 74 kts 333°
2026-04-25 19:10 53.64158 9.98625 54 ft 49 kts 333°
2026-04-25 19:11 53.64421 9.98406 55 ft 26 kts 342°
2026-04-25 19:11 53.64576 9.98366 58 ft 18 kts
2026-04-25 19:11 53.64692 9.98419 51 ft 18 kts 47°
2026-04-25 19:11 53.64633 9.98556 53 ft 19 kts 153°
2026-04-25 19:12 53.64524 9.98656 52 ft 18 kts 152°
2026-04-25 19:12 53.64410 9.98752 50 ft 17 kts 154°
2026-04-25 19:12 53.64290 9.98856 50 ft 22 kts 152°
2026-04-25 19:12 53.64155 9.98973 49 ft 19 kts 154°
2026-04-25 19:13 53.64024 9.99084 49 ft 23 kts 153°
2026-04-25 19:13 53.63907 9.99187 49 ft 19 kts 152°
2026-04-25 19:13 53.63791 9.99314 49 ft 16 kts 138°
2026-04-25 19:13 53.63710 9.99472 49 ft 20 kts 126°
2026-04-25 19:14 53.63640 9.99635 49 ft 12 kts 125°
2026-04-25 19:14 53.63623 9.99676 50 ft 13 kts 125°
2026-04-25 19:14 53.63540 9.99868 51 ft 7 kts 126°
2026-04-25 19:14 53.63502 9.99957 49 ft 12 kts 126°
2026-04-25 19:15 53.63471 10.00030 49 ft 6 kts 126°
2026-04-25 19:15 53.63434 10.00115 49 ft 11 kts 126°
2026-04-25 19:15 53.63353 10.00165 49 ft 15 kts 176°
2026-04-25 19:15 53.63259 10.00175 49 ft 13 kts 176°
2026-04-25 19:16 53.63175 10.00184 49 ft 10 kts 175°
2026-04-25 19:16 53.63091 10.00193 46 ft 9 kts 185°
2026-04-25 19:16 53.63029 10.00141 49 ft 12 kts 213°
2026-04-25 19:16 53.62949 10.00087 49 ft 10 kts 163°
2026-04-25 19:17 53.62906 10.00175 46 ft 8 kts 121°
2026-04-25 19:17 53.62899 10.00196 49 ft 0 kts 123°
2026-04-25 19:17 53.62895 10.00205 49 ft 3 kts 123°
2026-04-25 19:17 53.62891 10.00215 49 ft 0 kts 123°
2026-04-25 19:18 53.62891 10.00214 49 ft 0 kts 123°
2026-04-25 19:23 53.62892 10.00214 49 ft 0 kts 123°
2026-04-25 19:28 53.62892 10.00213 49 ft 0 kts 123°